Weather History for Pullman, WA

Change the Weather History Date:

Saturday, June 29, 2013

  Actual Average Record
Temperature  
Mean Temperature 72 °F 62 °F  
Max Temperature 84 °F 76 °F 95 °F (2008)
Min Temperature 59 °F 47 °F 35 °F (1959)
Degree Days  
Heating Degree Days 0 5  
Month to date heating degree days 190 202  
Since 1 June heating degree days 190 202  
Since 1 July heating degree days 6269 6602  
Cooling Degree Days 7 1  
Month to date cooling degree days 26 8  
Year to date cooling degree days 38 13  
Since 1 June cooling degree days 26 8  
Growing Degree Days 22 (Base 50)    
Moisture  
Dew Point 62 °F    
Average Humidity 74    
Maximum Humidity 97    
Minimum Humidity 51    
Precipitation  
Precipitation 0.02 in 0.04 in 0.73 in (1952)
Month to date precipitation 1.81 1.05  
Year to date precipitation 8.31 9.56  
Sea Level Pressure  
Sea Level Pressure 30.01 in    
Wind  
Wind Speed 5 mph (NNW)    
Max Wind Speed 17 mph    
Max Gust Speed 23 mph    
Visibility 10 miles    
Events Rain , Thunderstorm    
T = Trace of Precipitation, MM = Missing Value Source: NWS Daily Summary

Daily Weather History Graph

Daily Weather History Graph

Search for Another Location

Airport:

Trip Planner

Search our weather history database for the weather conditions in past years. The results will help you decide how hot, cold, wet, or windy it might be!

Date:

Astronomy

Jun. 29, 2013 Rise Set
Actual Time 4:57 AM PDT 8:46 PM PDT
Civil Twilight 4:18 AM PDT 9:25 PM PDT
Nautical Twilight 3:24 AM PDT 10:18 PM PDT
Astronomical Twilight 2:07 AM PDT 11:35 PM PDT
Moon No Moon Rise 12:43 PM PDT (6/29)
Length of Visible Light 17h 07m
Length of Day
15h 48m
Waning Gibbous, 54% of the Moon is Illuminated
Jun 29
Waning Gibbous
Jun 29
Last Quarter
Jul 8
New
Jul 15
First Quarter
Jul 22
Full

Hourly Weather History & Observations

Time (PDT) Temp. Heat Index Dew Point Humidity Pressure Visibility Wind Dir Wind Speed Gust Speed Precip Events Conditions
12:53 AM 64.0 °F - 60.1 °F 87% 30.05 in 10.0 mi Calm Calm - N/A   Clear
1:53 AM 63.0 °F - 59.0 °F 87% 30.04 in 10.0 mi Calm Calm - N/A   Clear
2:53 AM 62.1 °F - 60.1 °F 93% 30.04 in 10.0 mi Calm Calm - N/A   Clear
3:53 AM 61.0 °F - 59.0 °F 93% 30.01 in 10.0 mi Calm Calm - N/A   Clear
4:53 AM 61.0 °F - 59.0 °F 93% 30.04 in 10.0 mi Calm Calm - N/A   Clear
5:32 AM 62.6 °F - 60.8 °F 94% 30.11 in 10.0 mi Calm Calm - N/A Thunderstorm Mostly Cloudy
5:53 AM 64.0 °F - 61.0 °F 90% 30.07 in 6.0 mi NE 4.6 mph - 0.01 in Rain , Thunderstorm Rain
6:51 AM 64.4 °F - 60.8 °F 88% 30.08 in 10.0 mi NNE 13.8 mph 23.0 mph 0.01 in Rain Light Rain
6:53 AM 64.9 °F - 61.0 °F 87% 30.03 in 10.0 mi NNE 12.7 mph - 0.01 in   Partly Cloudy
7:53 AM 69.1 °F - 60.1 °F 73% 30.01 in 10.0 mi NNE 5.8 mph - N/A   Clear
8:53 AM 75.9 °F - 64.0 °F 67% 30.01 in 10.0 mi East 5.8 mph - N/A   Clear
9:53 AM 75.9 °F - 64.0 °F 67% 30.01 in 10.0 mi Variable 3.5 mph - N/A   Partly Cloudy
10:53 AM 79.0 °F - 62.1 °F 56% 30.03 in 10.0 mi WNW 5.8 mph - N/A   Clear
11:53 AM 80.1 °F 82.1 °F 66.0 °F 62% 30.02 in 10.0 mi NW 5.8 mph - N/A   Clear
12:53 PM 81.0 °F 83.3 °F 66.9 °F 62% 30.01 in 10.0 mi NW 6.9 mph - N/A   Clear
1:53 PM 82.0 °F 83.8 °F 64.9 °F 56% 30.00 in 10.0 mi NW 6.9 mph - N/A   Clear
2:53 PM 82.0 °F 83.1 °F 63.0 °F 52% 29.99 in 10.0 mi North 9.2 mph 17.3 mph N/A   Clear
3:53 PM 82.0 °F 83.4 °F 64.0 °F 54% 29.98 in 10.0 mi North 9.2 mph - N/A   Clear
4:53 PM 84.0 °F 86.3 °F 66.0 °F 55% 29.96 in 10.0 mi Variable 3.5 mph - N/A   Clear
5:53 PM 82.9 °F 84.6 °F 64.9 °F 54% 29.95 in 10.0 mi NW 5.8 mph - N/A   Clear
6:53 PM 78.1 °F - 64.9 °F 64% 29.96 in 10.0 mi WNW 5.8 mph - N/A   Clear
7:53 PM 73.0 °F - 62.1 °F 68% 29.97 in 10.0 mi WNW 5.8 mph - N/A   Clear
8:53 PM 69.1 °F - 61.0 °F 75% 29.98 in 10.0 mi WNW 5.8 mph - N/A   Clear
9:53 PM 64.9 °F - 59.0 °F 81% 30.00 in 10.0 mi Calm Calm - N/A   Clear
10:53 PM 64.0 °F - 60.1 °F 87% 29.99 in 10.0 mi North - - N/A   Clear
11:53 PM 64.0 °F - 59.0 °F 84% 30.00 in 10.0 mi North - - N/A   Clear